Nogales, AZ

12:42 AM MST on February 23, 2018 (GMT -0700)
Nogales International

Weather History for KOLS - October, 2013

Change the Weather History Date:

Tuesday, October 8, 2013

  Actual Average (KFHU) Record (KFHU)
Temperature  
Mean Temperature 68 °F -  
Max Temperature 82 °F 80 °F 89 °F (1996)
Min Temperature 53 °F 58 °F 44 °F (2011)
Cooling Degree Days 2    
Growing Degree Days 18 (Base 50)    
Moisture  
Dew Point 30 °F    
Average Humidity 25    
Maximum Humidity 47    
Minimum Humidity 12    
Precipitation  
Precipitation 0.00 in - - ()
Sea Level Pressure  
Sea Level Pressure 29.82 in    
Wind  
Wind Speed 7 mph (South)    
Max Wind Speed 18 mph    
Max Gust Speed 28 mph    
Visibility 10 miles    
Events      
Averages and records for this station are not official NWS values.
T = Trace of Precipitation, MM = Missing Value Source: NWS Daily Summary

Daily Weather History Graph

Daily Weather History Graph

Search for Another Location

Airport or City:

Trip Planner

Search our weather history database for the weather conditions in past years. The results will help you decide how hot, cold, wet, or windy it might be!

Date:

Astronomy

Oct. 08, 2013 Rise Set
Actual Time 6:21 AM MST 5:59 PM MST
Civil Twilight 5:57 AM MST 6:23 PM MST
Nautical Twilight 5:29 AM MST 6:51 PM MST
Astronomical Twilight 5:01 AM MST 7:19 PM MST
Moon 10:05 AM MST (10/8) 8:53 PM MST (10/8)
Length of Visible Light 12h 26m
Length of Day
11h 37m
Waxing Crescent, 17% of the Moon is Illuminated
Oct 8
Waxing Crescent
Oct 11
First Quarter
Oct 18
Full
Oct 26
Last Quarter
Nov 3
New

Hourly Weather History & Observations

Time (MST) Temp. Dew Point Humidity Pressure Visibility Wind Dir Wind Speed Gust Speed Precip Events Conditions
12:54 AM 63.0 °F 32.0 °F 31% 29.86 in 10.0 mi East 8.1 mph - N/A   Clear
1:54 AM 59.0 °F 32.0 °F 36% 29.85 in 10.0 mi Calm Calm - N/A   Clear
3:54 AM 55.0 °F 32.0 °F 42% 29.84 in 10.0 mi Calm Calm - N/A   Clear
4:54 AM 54.0 °F 32.0 °F 43% 29.85 in 10.0 mi Calm Calm - N/A   Clear
5:54 AM 53.1 °F 33.1 °F 47% 29.86 in 10.0 mi ENE 4.6 mph - N/A   Clear
6:54 AM 53.1 °F 33.1 °F 47% 29.89 in 10.0 mi NE 5.8 mph - N/A   Clear
7:54 AM 60.1 °F 35.1 °F 39% 29.89 in 10.0 mi Calm Calm - N/A   Clear
8:54 AM 69.1 °F 36.0 °F 30% 29.88 in 10.0 mi Calm Calm - N/A   Clear
9:54 AM 78.1 °F 36.0 °F 22% 29.86 in 10.0 mi Variable 6.9 mph - N/A   Clear
10:54 AM 80.1 °F 33.1 °F 18% 29.85 in 10.0 mi SW 15.0 mph 24.2 mph N/A   Clear
11:54 AM 81.0 °F 33.1 °F 18% 29.83 in 10.0 mi SW 10.4 mph 18.4 mph N/A   Clear
12:54 PM 82.0 °F 32.0 °F 16% 29.80 in 10.0 mi WSW 18.4 mph 27.6 mph N/A   Clear
1:54 PM 82.9 °F 28.0 °F 14% 29.79 in 10.0 mi South 18.4 mph 24.2 mph N/A   Clear
2:54 PM 82.9 °F 26.1 °F 13% 29.78 in 10.0 mi SW 17.3 mph - N/A   Clear
3:54 PM 82.0 °F 24.1 °F 12% 29.78 in 10.0 mi SW 16.1 mph 23.0 mph N/A   Clear
4:54 PM 80.1 °F 23.0 °F 12% 29.78 in 10.0 mi SW 15.0 mph 23.0 mph N/A   Clear
5:54 PM 75.9 °F 21.9 °F 13% 29.78 in 10.0 mi SW 10.4 mph - N/A   Clear
6:54 PM 71.1 °F 24.1 °F 17% 29.80 in 10.0 mi SSW 6.9 mph - N/A   Clear
7:54 PM 68.0 °F 24.1 °F 19% 29.80 in 10.0 mi SSE 6.9 mph - N/A   Clear
8:54 PM 66.0 °F 25.0 °F 21% 29.79 in 10.0 mi South 8.1 mph - N/A   Clear
9:54 PM 64.9 °F 26.1 °F 23% 29.78 in 10.0 mi South 6.9 mph - N/A   Clear
10:54 PM 66.9 °F 27.0 °F 22% 29.76 in 10.0 mi SE 6.9 mph - N/A   Clear
11:54 PM 62.1 °F 30.0 °F 30% 29.75 in 10.0 mi South 5.8 mph - N/A   Clear